TimeEET,TemperatureF,Dew PointF,Humidity,Sea Level PressureIn,VisibilityMPH,Wind Direction,Wind SpeedMPH,Gust SpeedMPH,PrecipitationIn,Events,Conditions,WindDirDegrees,DateUTC
12:20 AM,30.2,30.2,100,30.24,-9999.0,NNE,5.8,-,N/A,,Clear,30,2013-03-17 22:20:00
12:50 AM,30.2,30.2,100,30.24,-9999.0,NNE,4.6,-,N/A,,Clear,20,2013-03-17 22:50:00
1:20 AM,30.2,30.2,100,30.24,-9999.0,NNE,3.5,-,N/A,,Clear,30,2013-03-17 23:20:00
1:50 AM,30.2,30.2,100,30.24,-9999.0,NNE,4.6,-,N/A,,Clear,30,2013-03-17 23:50:00
2:20 AM,30.2,30.2,100,30.24,-9999.0,NNE,4.6,-,N/A,,Clear,20,2013-03-18 00:20:00
2:50 AM,30.2,30.2,100,30.21,-9999.0,NE,4.6,-,N/A,,Clear,50,2013-03-18 00:50:00
3:20 AM,30.2,30.2,100,30.21,-9999.0,ENE,4.6,-,N/A,,Clear,60,2013-03-18 01:20:00
3:50 AM,30.2,30.2,100,30.21,-9999.0,NE,3.5,-,N/A,,Clear,50,2013-03-18 01:50:00
4:20 AM,30.2,30.2,100,30.24,-9999.0,NE,5.8,-,N/A,,Clear,50,2013-03-18 02:20:00
4:50 AM,30.2,30.2,100,30.21,-9999.0,NE,5.8,-,N/A,,Clear,40,2013-03-18 02:50:00
5:20 AM,30.2,30.2,100,30.21,-9999.0,NE,4.6,-,N/A,,Clear,50,2013-03-18 03:20:00
5:50 AM,28.4,28.4,100,30.21,-9999.0,ENE,4.6,-,N/A,,Clear,70,2013-03-18 03:50:00
6:20 AM,28.4,28.4,100,30.21,-9999.0,ENE,4.6,-,N/A,,Clear,70,2013-03-18 04:20:00
6:50 AM,32.0,30.2,93,30.21,-9999.0,ENE,6.9,-,N/A,,Clear,60,2013-03-18 04:50:00
7:20 AM,33.8,30.2,87,30.21,-9999.0,NE,6.9,-,N/A,,Clear,50,2013-03-18 05:20:00
7:50 AM,35.6,32.0,87,30.21,-9999.0,ENE,5.8,-,N/A,,Clear,60,2013-03-18 05:50:00
8:20 AM,39.2,33.8,81,30.21,-9999.0,ENE,4.6,-,N/A,,Clear,70,2013-03-18 06:20:00
8:50 AM,41.0,33.8,76,30.21,-9999.0,East,5.8,-,N/A,,Clear,90,2013-03-18 06:50:00
9:20 AM,41.0,33.8,76,30.21,6.2,ESE,5.8,-,N/A,,Partly Cloudy,110,2013-03-18 07:20:00
9:50 AM,42.8,35.6,76,30.21,6.2,ESE,8.1,-,N/A,,Scattered Clouds,120,2013-03-18 07:50:00
10:20 AM,42.8,33.8,70,30.18,6.2,SE,6.9,-,N/A,,Scattered Clouds,130,2013-03-18 08:20:00
10:50 AM,42.8,35.6,76,30.18,4.3,SE,8.1,-,N/A,,Mostly Cloudy,140,2013-03-18 08:50:00
11:20 AM,41.0,35.6,81,30.18,4.3,ESE,10.4,-,N/A,,Mostly Cloudy,120,2013-03-18 09:20:00
11:50 AM,42.8,33.8,70,30.18,4.3,SE,9.2,-,N/A,,Mostly Cloudy,130,2013-03-18 09:50:00
12:20 PM,42.8,35.6,76,30.15,4.3,SE,9.2,-,N/A,,Mostly Cloudy,130,2013-03-18 10:20:00
12:50 PM,44.6,33.8,66,30.15,5.0,SE,10.4,-,N/A,,Scattered Clouds,130,2013-03-18 10:50:00
1:20 PM,44.6,30.2,57,30.12,6.2,SSE,10.4,-,N/A,,Scattered Clouds,150,2013-03-18 11:20:00
1:50 PM,44.6,32.0,61,30.09,6.2,SSE,10.4,-,N/A,,Scattered Clouds,150,2013-03-18 11:50:00
2:20 PM,44.6,33.8,66,30.09,-9999.0,SE,9.2,-,N/A,,Clear,140,2013-03-18 12:20:00
2:50 PM,44.6,32.0,61,30.06,-9999.0,SSE,8.1,-,N/A,,Clear,150,2013-03-18 12:50:00
3:20 PM,44.6,33.8,66,30.06,-9999.0,SSE,8.1,-,N/A,,Clear,160,2013-03-18 13:20:00
3:50 PM,44.6,32.0,61,30.06,-9999.0,SSE,5.8,-,N/A,,Clear,150,2013-03-18 13:50:00
4:20 PM,44.6,33.8,66,30.04,-9999.0,SSE,5.8,-,N/A,,Clear,150,2013-03-18 14:20:00
4:50 PM,44.6,33.8,66,30.04,-9999.0,SSE,5.8,-,N/A,,Clear,150,2013-03-18 14:50:00
5:20 PM,42.8,33.8,70,30.01,-9999.0,SE,5.8,-,N/A,,Clear,140,2013-03-18 15:20:00
5:50 PM,42.8,33.8,70,30.01,-9999.0,SE,5.8,-,N/A,,Clear,140,2013-03-18 15:50:00
6:20 PM,41.0,33.8,76,30.01,-9999.0,SE,5.8,-,N/A,,Clear,140,2013-03-18 16:20:00
6:50 PM,41.0,33.8,76,30.01,6.2,SSE,4.6,-,N/A,,Scattered Clouds,160,2013-03-18 16:50:00
7:20 PM,41.0,33.8,76,30.01,6.2,South,3.5,-,N/A,,Mostly Cloudy,180,2013-03-18 17:20:00
7:50 PM,41.0,33.8,76,30.01,6.2,South,3.5,-,N/A,,Mostly Cloudy,190,2013-03-18 17:50:00
8:20 PM,41.0,33.8,76,30.01,6.2,South,3.5,-,N/A,,Mostly Cloudy,180,2013-03-18 18:20:00
8:50 PM,41.0,33.8,76,30.01,6.2,South,3.5,-,N/A,,Mostly Cloudy,180,2013-03-18 18:50:00
9:20 PM,41.0,35.6,81,29.98,6.2,South,3.5,-,N/A,,Mostly Cloudy,170,2013-03-18 19:20:00
9:50 PM,41.0,35.6,81,29.98,6.2,SSE,5.8,-,N/A,,Mostly Cloudy,160,2013-03-18 19:50:00
10:20 PM,41.0,35.6,81,29.95,6.2,South,6.9,-,N/A,,Mostly Cloudy,170,2013-03-18 20:20:00
10:50 PM,42.8,37.4,81,29.95,6.2,South,5.8,-,N/A,,Mostly Cloudy,170,2013-03-18 20:50:00
11:20 PM,42.8,39.2,87,29.92,6.2,South,5.8,-,N/A,Rain,Light Rain Showers,170,2013-03-18 21:20:00
11:50 PM,42.8,39.2,87,29.92,6.2,SSE,4.6,-,N/A,,Mostly Cloudy,160,2013-03-18 21:50:00